Location: Gunnison Valley Observatory
(38.5087°N, 106.9386°W)
Time: 20:57:12
(UTC-06:00)

Amateur Radio Satellites - All Passes

Search period start: 20 April 2015 20:27
Search period end: 21 April 2015 20:27
Location: Gunnison Valley Observatory, 38.5087°N, 106.9386°W

Satellite Date Start Highest point End Downlink Frequencies (MHz)
Time Altitude Azimuth
CUTE 1.7 + AOD 2 20 Apr 20:28:42 20:32:24 29° 71° (ENE) 20:36:09 437.475
CINEMA 3 20 Apr 20:38:10 20:40:45 16° 67° (ENE) 20:43:33 145.822/145.860
ISS 20 Apr 20:41:50 20:45:00 45° 34° (NE) 20:48:08 145.825
DOVE 4 20 Apr 20:48:32 20:52:25 41° 73° (ENE) 20:56:30 437.250
PCSat 20 Apr 20:49:05 20:52:40 17° 254° (WSW) 20:56:00 145.827
AAUSAT CUBESAT 2 20 Apr 20:50:30 20:54:09 29° 71° (ENE) 20:57:51 437.432
M-CUBED/EXP-1 PRIME 20 Apr 20:51:56 20:53:58 13° 302° (WNW) 20:55:46 437.505
DELFI C3 20 Apr 21:03:38 21:05:42 14° 67° (ENE) 21:07:57 145.870
ZACube-1 20 Apr 21:05:40 21:06:44 11° 64° (ENE) 21:08:03 437.345
BRITE-PL 20 Apr 21:07:11 21:11:09 44° 262° (W) 21:15:10 437.365/2234.400
PHONESAT 2.4 20 Apr 21:11:15 21:14:51 83° 161° (SSE) 21:18:26 2401.200-2431.200
CUBEBUG 2 20 Apr 21:14:03 21:17:15 21° 69° (ENE) 21:20:38 437.445
Oscar 11 20 Apr 21:15:27 21:19:04 27° 71° (ENE) 21:22:48 145.826/435.025
GOMX 1 20 Apr 21:22:58 21:26:58 47° 261° (W) 21:31:04 467.674
STRAND 1 20 Apr 21:28:14 21:31:52 19° 294° (WNW) 21:35:20 437.568
Cosmos 2499 20 Apr 21:33:42 21:40:23 22° 295° (WNW) 21:46:38 435.465 / 435.565
COMPASS 1 20 Apr 21:38:04 21:42:16 64° 259° (W) 21:46:30 437.405
VERMONT LUNAR 20 Apr 21:38:19 21:41:40 59° 358° (N) 21:45:01 437.305
DX 1 20 Apr 21:40:22 21:43:17 18° 67° (ENE) 21:46:19 434.975-435.025
HUMSAT D 20 Apr 21:44:35 21:46:43 14° 67° (ENE) 21:49:04 437.325/437.525
UWE-3 20 Apr 21:51:00 21:55:02 44° 73° (ENE) 21:59:15 435.000/436.395/437.385
CANX-2 20 Apr 21:54:40 21:58:17 25° 266° (W) 22:01:50 2200.000
SO-50 20 Apr 21:54:49 21:59:33 44° 53° (NE) 22:04:16 436.795
SEEDS 20 Apr 21:55:17 21:59:09 33° 264° (W) 22:03:01 437.485
HO-68 20 Apr 21:59:20 22:05:57 38° 263° (W) 22:12:31 435.675
CUTE 1.7 + AOD 2 20 Apr 22:04:58 22:08:21 22° 267° (W) 22:11:39 437.475
50 SAT 20 Apr 22:12:58 22:15:34 17° 68° (ENE) 22:18:18 437.505
CINEMA 3 20 Apr 22:13:39 22:17:39 40° 263° (W) 22:21:47 145.822/145.860
FUNcube-1 20 Apr 22:15:13 22:19:26 65° 76° (ENE) 22:23:48 145.935
RS-15 20 Apr 22:16:42 22:25:10 24° 26° (NNE) 22:34:12 29.354- 29.394
ISS 20 Apr 22:18:58 22:21:07 16° 229° (SW) 22:23:12 145.825
VELOX 1 20 Apr 22:24:57 22:28:30 25° 69° (ENE) 22:32:08 145.980
AAUSAT CUBESAT 2 20 Apr 22:26:33 22:29:49 21° 267° (W) 22:32:59 437.432
DOVE 4 20 Apr 22:28:12 22:30:33 14° 270° (W) 22:32:45 437.250
UKube-1 20 Apr 22:29:48 22:34:03 61° 74° (ENE) 22:38:20 .
Cosmos 2491 20 Apr 22:30:36 22:36:55 24° 83° (E) 22:43:38 435.465 / 435.565
DELFI C3 20 Apr 22:36:36 22:40:31 44° 262° (W) 22:44:27 145.870
ZACube-1 20 Apr 22:38:20 22:42:34 66° 259° (W) 22:46:56 437.345
AISAT 20 Apr 22:40:02 22:44:03 37° 72° (ENE) 22:48:09 437.250
ANTELSAT 20 Apr 22:42:24 22:45:19 17° 91° (E) 22:48:24 437.575/2403.000
YUBILEINY 20 Apr 22:43:10 22:51:45 57° 77° (ENE) 23:00:18 435.215
CUBEBUG 1 20 Apr 22:46:58 22:50:04 20° 68° (ENE) 22:53:17 437.445
PHONESAT 2.4 20 Apr 22:49:41 22:53:14 60° 0° (N) 22:56:47 2401.200-2431.200
CUBEBUG 2 20 Apr 22:49:58 22:53:47 31° 265° (W) 22:57:41 437.445
Oscar 11 20 Apr 22:51:38 22:55:14 24° 266° (W) 22:58:47 145.826/435.025
ESTCUBE 1 20 Apr 22:59:52 23:03:51 32° 71° (ENE) 23:07:55 437.505/2401.250
NANOSAT C BR1 20 Apr 23:07:26 23:09:18 13° 90° (E) 23:11:22 145.865
POPSAT HIP 1 20 Apr 23:08:00 23:09:57 13° 90° (E) 23:12:09 437.405
DX 1 20 Apr 23:15:16 23:19:18 37° 262° (W) 23:23:19 434.975-435.025
VERMONT LUNAR 20 Apr 23:15:56 23:19:20 89° 213° (SSW) 23:22:42 437.305
HUMSAT D 20 Apr 23:18:05 23:22:07 46° 261° (W) 23:26:13 437.325/437.525
UWE-3 20 Apr 23:29:25 23:31:54 15° 270° (W) 23:34:15 435.000/436.395/437.385
POLYITAN 1 20 Apr 23:33:48 23:37:28 27° 95° (E) 23:41:11 437.675
TIGRISAT 20 Apr 23:34:06 23:38:47 58° 100° (E) 23:43:24 435.000
UNISAT 6 20 Apr 23:35:52 23:40:33 63° 100° (E) 23:45:12 437.425
SO-50 20 Apr 23:36:02 23:39:52 22° 249° (WSW) 23:43:31 436.795
O/OREOS (USA 219) 20 Apr 23:41:17 23:45:51 70° 109° (ESE) 23:50:25 437.305
DUCHIFAT 1 20 Apr 23:41:33 23:45:21 31° 96° (E) 23:49:13 145.980
50 SAT 20 Apr 23:46:34 23:50:11 33° 264° (W) 23:53:48 437.505
QB50P1 20 Apr 23:55:13 23:59:21 47° 99° (E) 00:03:30 145.935-145.965
BUGSAT 1 21 Apr 00:00:32 00:04:20 36° 98° (E) 00:08:12 437.445
VELOX 1 21 Apr 00:01:13 00:05:00 27° 264° (W) 00:08:44 145.980
UKube-1 21 Apr 00:09:43 00:10:41 10° 271° (W) 00:11:21 .
AISAT 21 Apr 00:17:46 00:20:50 18° 268° (W) 00:23:46 437.250
ANTELSAT 21 Apr 00:17:51 00:22:24 46° 287° (WNW) 00:26:51 437.575/2403.000
TISAT 1 21 Apr 00:17:59 00:21:54 41° 73° (ENE) 00:25:52 437.305
QB50P2 21 Apr 00:19:10 00:23:30 87° 283° (WNW) 00:27:48 145.880/145.840
CUBEBUG 1 21 Apr 00:22:18 00:26:15 33° 263° (W) 00:30:10 437.445
Cosmos 2491 21 Apr 00:24:28 00:33:08 67° 281° (W) 00:41:51 435.465 / 435.565
SPROUT 21 Apr 00:27:29 00:31:43 68° 76° (ENE) 00:35:59 437.525
PHONESAT 2.4 21 Apr 00:28:01 00:31:36 78° 198° (SSW) 00:35:10 2401.200-2431.200
RS-15 21 Apr 00:28:58 00:40:28 66° 54° (NE) 00:52:28 29.354- 29.394
ESTCUBE 1 21 Apr 00:37:15 00:40:49 22° 266° (W) 00:44:16 437.505/2401.250
YUBILEINY 21 Apr 00:40:53 00:48:07 29° 275° (W) 00:55:02 435.215
NANOSAT C BR1 21 Apr 00:41:21 00:45:30 49° 286° (WNW) 00:49:37 145.865
POPSAT HIP 1 21 Apr 00:42:01 00:46:10 48° 286° (WNW) 00:50:18 437.405
VERMONT LUNAR 21 Apr 00:53:53 00:56:37 23° 210° (SSW) 00:59:19 437.305
Cosmos 2504 21 Apr 00:55:00 01:02:24 37° 72° (ENE) 01:09:24 435.465 / 435.565
ITUPSAT 1 21 Apr 01:02:44 01:06:19 22° 67° (ENE) 01:10:01 437.325
POLYITAN 1 21 Apr 01:09:47 01:13:18 24° 290° (WNW) 01:16:44 437.675
TIGRISAT 21 Apr 01:12:26 01:15:05 15° 295° (WNW) 01:17:31 435.000
UNISAT 6 21 Apr 01:14:27 01:16:52 14° 295° (WNW) 01:19:03 437.425
DUCHIFAT 1 21 Apr 01:17:48 01:21:01 21° 291° (WNW) 01:24:08 145.980
O/OREOS (USA 219) 21 Apr 01:23:48 01:25:51 12° 308° (NW) 01:27:42 437.305
Oscar 19 21 Apr 01:29:31 01:32:33 16° 90° (E) 01:35:48 437.125/150
QB50P1 21 Apr 01:32:27 01:34:53 15° 293° (WNW) 01:37:08 145.935-145.965
BEESAT 21 Apr 01:35:55 01:40:29 48° 73° (ENE) 01:45:06 436.000
AIST 1 21 Apr 01:36:18 01:40:34 60° 94° (E) 01:44:49
BUGSAT 1 21 Apr 01:36:50 01:39:36 17° 292° (WNW) 01:42:14 437.445
SWISSCUBE 21 Apr 01:37:25 01:42:04 54° 74° (ENE) 01:46:46 437.505
TISAT 1 21 Apr 01:55:30 01:57:57 15° 269° (W) 02:00:12 437.305
PHONESAT 2.4 21 Apr 02:06:52 02:09:34 20° 212° (SSW) 02:12:12 2401.200-2431.200
Cosmos 2491 21 Apr 02:29:04 02:32:11 12° 304° (NW) 02:34:35 435.465 / 435.565
STARS 21 Apr 02:29:40 02:32:42 19° 67° (ENE) 02:35:53 437.465
ITUPSAT 1 21 Apr 02:39:31 02:44:01 38° 263° (W) 02:48:27 437.325
RS-15 21 Apr 02:42:11 02:52:24 35° 253° (WSW) 03:02:36 29.354- 29.394
Cosmos 2504 21 Apr 02:48:25 02:55:56 41° 272° (W) 03:02:51 435.465 / 435.565
KKS-1 21 Apr 02:57:07 03:01:28 62° 75° (ENE) 03:05:52 437.445
GONETS M04 21 Apr 03:06:18 03:11:48 18° 62° (ENE) 03:17:46
Oscar 19 21 Apr 03:07:13 03:12:20 57° 287° (WNW) 03:17:25 437.125/150
BEESAT 21 Apr 03:15:32 03:18:39 16° 269° (W) 03:21:34 436.000
SWISSCUBE 21 Apr 03:17:36 03:20:20 15° 270° (W) 03:22:50 437.505
AIST 1 21 Apr 03:17:48 03:18:44 10° 292° (WNW) 03:19:24
BEESAT 2 21 Apr 03:28:10 03:30:22 15° 110° (ESE) 03:32:46 435.950
Gurwin Techsat 1B 21 Apr 03:28:59 03:34:14 61° 100° (E) 03:39:29 435.225
ITAMSAT 1 21 Apr 03:30:02 03:35:13 72° 102° (ESE) 03:40:23 435.822/435.867
CUSAT 1 21 Apr 03:30:58 03:34:08 14° 63° (ENE) 03:38:02 437.405
BEESAT 3 21 Apr 03:32:47 03:35:44 20° 112° (ESE) 03:38:49 437.485
HORYU 2 21 Apr 03:35:29 03:37:02 12° 89° (E) 03:38:52 437.375
DANDE 21 Apr 03:37:03 03:38:41 11° 62° (ENE) 03:41:01 436.750
STARS 21 Apr 04:04:53 04:08:56 36° 262° (W) 04:12:59 437.465
AO-7 21 Apr 04:22:14 04:29:24 32° 96° (E) 04:36:45 29.400- 29.500
MOZHAYETS 4 21 Apr 04:23:01 04:27:05 32° 71° (ENE) 04:31:15
KKS-1 21 Apr 04:37:19 04:38:37 11° 271° (W) 04:39:37 437.445
JAS-2 21 Apr 04:44:46 04:50:59 44° 96° (E) 04:56:31 435.910
GONETS M04 21 Apr 05:01:09 05:10:05 88° 262° (W) 05:18:55
BEESAT 2 21 Apr 05:04:11 05:08:09 46° 305° (NW) 05:12:10 435.950
HORYU 2 21 Apr 05:09:42 05:14:09 58° 286° (WNW) 05:18:33 437.375
BEESAT 3 21 Apr 05:09:48 05:13:33 34° 307° (NW) 05:17:20 437.485
Gurwin Techsat 1B 21 Apr 05:10:22 05:13:47 17° 296° (WNW) 05:16:58 435.225
CUSAT 1 21 Apr 05:10:42 05:17:55 72° 79° (E) 05:26:13 437.405
ITAMSAT 1 21 Apr 05:11:30 05:14:11 14° 297° (WNW) 05:16:37 435.822/435.867
AUBIESAT-1 21 Apr 05:15:23 05:18:48 21° 62° (ENE) 05:22:23 437.475
DANDE 21 Apr 05:16:05 05:23:01 64° 79° (ENE) 05:31:21 436.750
Cosmos 2499 21 Apr 05:32:25 05:38:31 24° 66° (ENE) 05:44:30 435.465 / 435.565
AIST 2 21 Apr 05:32:29 05:36:44 75° 302° (WNW) 05:41:03 435.215
CUBESAT XI-V 21 Apr 05:46:00 05:49:10 19° 68° (ENE) 05:52:29 437.345
JUGNU 21 Apr 05:48:56 05:50:53 12° 182° (S) 05:52:49 437.505
SRMSAT 21 Apr 05:50:14 05:50:40 10° 172° (S) 05:51:09 437.500
MOZHAYETS 4 21 Apr 06:00:37 06:04:23 23° 267° (W) 06:08:03
M-CUBED/EXP-1 PRIME 21 Apr 06:01:18 06:05:58 66° 70° (ENE) 06:10:47 437.505
AO-7 21 Apr 06:14:31 06:22:33 54° 294° (WNW) 06:30:31 29.400- 29.500
JAS-2 21 Apr 06:30:16 06:35:48 28° 296° (WNW) 06:40:41 435.910
AUBIESAT-1 21 Apr 06:48:46 06:53:16 45° 257° (WSW) 06:57:53 437.475
PRISM 21 Apr 06:52:45 06:56:54 64° 75° (ENE) 07:01:02 437.425
CUSAT 1 21 Apr 06:54:43 07:00:22 23° 271° (W) 07:06:10 437.405
DANDE 21 Apr 07:00:17 07:06:07 26° 270° (W) 07:12:23 436.750
GONETS M04 21 Apr 07:00:43 07:05:49 16° 281° (W) 07:10:18
STRAND 1 21 Apr 07:02:26 07:07:27 61° 74° (ENE) 07:12:31 437.568
CUTE-I 21 Apr 07:21:06 07:26:23 65° 101° (ESE) 07:31:40 437.470
CUBESAT XI-V 21 Apr 07:21:58 07:26:21 41° 262° (W) 07:30:44 437.345
Cosmos 2499 21 Apr 07:24:37 07:32:23 60° 268° (W) 07:39:33 435.465 / 435.565
Cubesat XI-IV 21 Apr 07:29:08 07:34:28 78° 102° (ESE) 07:39:48 437.490
SRMSAT 21 Apr 07:36:55 07:38:57 12° 182° (S) 07:40:57 437.500
M-CUBED/EXP-1 PRIME 21 Apr 07:39:00 07:41:19 13° 267° (W) 07:43:24 437.505
AO-7 21 Apr 08:11:28 08:13:41 11° 313° (NW) 08:15:22 29.400- 29.500
O/OREOS (USA 219) 21 Apr 08:16:14 08:17:12 11° 51° (NE) 08:18:24 437.305
STRAND 1 21 Apr 08:44:16 08:47:09 14° 270° (W) 08:49:46 437.568
DOVE 4 21 Apr 08:49:21 08:52:16 16° 90° (E) 08:55:30 437.250
CUTE-I 21 Apr 09:02:46 09:05:59 16° 296° (WNW) 09:08:59 437.470
Cubesat XI-IV 21 Apr 09:11:25 09:14:00 13° 298° (WNW) 09:16:18 437.490
BRITE-PL 21 Apr 09:11:42 09:16:36 60° 100° (E) 09:21:54 437.365/2234.400
COMPASS 1 21 Apr 09:23:47 09:27:03 22° 94° (E) 09:30:22 437.405
GOMX 1 21 Apr 09:24:51 09:29:46 53° 99° (E) 09:34:58 467.674
HO-68 21 Apr 09:27:54 09:34:45 47° 99° (E) 09:41:37 435.675
CANX-2 21 Apr 09:40:39 09:44:55 60° 100° (E) 09:49:07 2200.000
SEEDS 21 Apr 09:40:49 09:44:53 43° 98° (E) 09:48:56 437.485
ANTELSAT 21 Apr 09:41:21 09:43:14 13° 64° (ENE) 09:45:22 437.575/2403.000
PCSat 21 Apr 09:44:15 09:49:38 74° 116° (ESE) 09:55:04 145.827
UWE-3 21 Apr 09:44:40 09:45:53 11° 88° (E) 09:47:25 435.000/436.395/437.385
CUTE 1.7 + AOD 2 21 Apr 09:50:33 09:54:51 71° 101° (E) 09:59:05 437.475
O/OREOS (USA 219) 21 Apr 09:52:49 09:57:19 79° 250° (WSW) 10:01:46 437.305
YUBILEINY 21 Apr 09:53:19 09:54:54 11° 77° (ENE) 09:57:17 435.215
FUNcube-1 21 Apr 10:06:25 10:09:00 15° 90° (E) 10:11:48 145.935
CINEMA 3 21 Apr 10:09:06 10:13:56 52° 99° (E) 10:18:50 145.822/145.860
AAUSAT CUBESAT 2 21 Apr 10:09:54 10:14:06 68° 101° (E) 10:18:16 437.432
DELFI C3 21 Apr 10:17:54 10:21:17 26° 95° (E) 10:24:43 145.870
UKube-1 21 Apr 10:21:15 10:22:26 11° 89° (E) 10:23:53 .
DOVE 4 21 Apr 10:25:26 10:30:22 57° 285° (WNW) 10:35:29 437.250
POLYITAN 1 21 Apr 10:26:24 10:29:11 18° 68° (ENE) 10:32:07 437.675
ZACube-1 21 Apr 10:28:43 10:32:38 27° 95° (E) 10:36:35 437.345
TIGRISAT 21 Apr 10:31:30 10:35:40 41° 72° (ENE) 10:39:59 435.000
DUCHIFAT 1 21 Apr 10:33:21 10:36:22 20° 69° (ENE) 10:39:32 145.980
UNISAT 6 21 Apr 10:33:26 10:37:40 45° 73° (ENE) 10:42:04 437.425
Cosmos 2491 21 Apr 10:36:31 10:45:12 59° 78° (ENE) 10:53:54 435.465 / 435.565
Oscar 11 21 Apr 10:39:28 10:43:49 66° 100° (E) 10:48:08 145.826/435.025
CUBEBUG 2 21 Apr 10:41:38 10:46:20 60° 100° (E) 10:51:04 437.445
QB50P1 21 Apr 10:46:55 10:50:32 29° 71° (ENE) 10:54:14 145.935-145.965
BUGSAT 1 21 Apr 10:50:02 10:53:02 21° 69° (ENE) 10:56:08 437.445
BRITE-PL 21 Apr 10:51:45 10:54:49 16° 292° (WNW) 10:57:48 437.365/2234.400
COMPASS 1 21 Apr 10:59:07 11:02:45 27° 289° (WNW) 11:06:17 437.405
HUMSAT D 21 Apr 11:03:48 11:07:38 30° 96° (E) 11:11:29 437.325/437.525
GOMX 1 21 Apr 11:04:08 11:07:35 18° 292° (WNW) 11:10:58 467.674
DX 1 21 Apr 11:04:46 11:08:51 39° 98° (E) 11:12:58 434.975-435.025
QB50P2 21 Apr 11:10:36 11:14:44 57° 75° (ENE) 11:18:53 145.880/145.840
ANTELSAT 21 Apr 11:15:06 11:19:31 61° 260° (W) 11:24:04 437.575/2403.000
HO-68 21 Apr 11:16:00 11:22:18 33° 296° (WNW) 11:28:25 435.675
SEEDS 21 Apr 11:17:49 11:20:22 15° 293° (WNW) 11:22:43 437.485
UWE-3 21 Apr 11:18:17 11:22:57 68° 284° (WNW) 11:27:37 435.000/436.395/437.385
CANX-2 21 Apr 11:18:46 11:20:23 12° 294° (WNW) 11:21:47 2200.000
50 SAT 21 Apr 11:25:07 11:28:45 31° 96° (E) 11:32:23 437.505
PCSat 21 Apr 11:30:04 11:33:43 17° 315° (NW) 11:37:12 145.827
NANOSAT C BR1 21 Apr 11:32:12 11:36:23 81° 258° (WSW) 11:40:37 145.865
POPSAT HIP 1 21 Apr 11:33:06 11:37:18 79° 258° (WSW) 11:41:32 437.405
FUNcube-1 21 Apr 11:41:13 11:45:40 48° 286° (WNW) 11:50:03 145.935
YUBILEINY 21 Apr 11:41:36 11:50:19 70° 93° (E) 11:59:06 435.215
AIST 1 21 Apr 11:46:41 11:48:34 13° 69° (ENE) 11:50:38
CINEMA 3 21 Apr 11:47:27 11:50:47 18° 293° (WNW) 11:53:58 145.822/145.860
VELOX 1 21 Apr 11:52:21 11:56:44 61° 101° (E) 12:01:07 145.980
DELFI C3 21 Apr 11:53:10 11:56:20 22° 290° (WNW) 11:59:24 145.870
BEESAT 3 21 Apr 11:54:06 11:54:59 11° 40° (NE) 11:56:01 437.485
UKube-1 21 Apr 11:54:45 11:59:02 58° 285° (WNW) 12:03:16 .
POLYITAN 1 21 Apr 12:00:59 12:04:52 35° 263° (W) 12:08:46 437.675
ZACube-1 21 Apr 12:05:01 12:08:56 27° 290° (WNW) 12:12:46 437.345
AISAT 21 Apr 12:08:12 12:12:40 85° 284° (WNW) 12:17:07 437.250
DUCHIFAT 1 21 Apr 12:08:18 12:12:03 30° 264° (W) 12:15:45 145.980
SO-50 21 Apr 12:09:15 12:12:22 19° 110° (ESE) 12:15:43 436.795
TIGRISAT 21 Apr 12:09:44 12:12:41 17° 269° (W) 12:15:31 435.000
UNISAT 6 21 Apr 12:12:01 12:14:47 15° 270° (W) 12:17:24 437.425
CUBEBUG 1 21 Apr 12:12:08 12:16:20 47° 99° (E) 12:20:33 437.445
SPROUT 21 Apr 12:17:20 12:19:22 13° 90° (E) 12:21:37 437.525
Oscar 11 21 Apr 12:18:11 12:19:31 11° 295° (WNW) 12:20:35 145.826/435.025
CUBEBUG 2 21 Apr 12:19:57 12:22:35 14° 294° (WNW) 12:25:02 437.445
QB50P1 21 Apr 12:23:14 12:26:27 21° 266° (W) 12:29:37 145.935-145.965
BUGSAT 1 21 Apr 12:24:58 12:28:25 26° 264° (W) 12:31:49 437.445
ESTCUBE 1 21 Apr 12:30:09 12:34:40 87° 101° (E) 12:39:09 437.505/2401.250
Cosmos 2491 21 Apr 12:34:20 12:41:35 28° 275° (W) 12:48:33 435.465 / 435.565
HUMSAT D 21 Apr 12:39:52 12:43:15 22° 291° (WNW) 12:46:31 437.325/437.525
DX 1 21 Apr 12:41:53 12:44:51 18° 293° (WNW) 12:47:41 434.975-435.025
Oscar 19 21 Apr 12:44:56 12:48:39 21° 66° (ENE) 12:52:32 437.125/150
QB50P2 21 Apr 12:50:01 12:51:05 11° 271° (W) 12:51:53 145.880/145.840
50 SAT 21 Apr 13:00:29 13:03:23 19° 291° (WNW) 13:06:09 437.505
ITAMSAT 1 21 Apr 13:11:26 13:12:53 11° 62° (ENE) 13:14:39 435.822/435.867
Gurwin Techsat 1B 21 Apr 13:14:12 13:14:38 10° 61° (ENE) 13:15:25 435.225
ISS 21 Apr 13:19:34 13:22:25 28° 134° (SE) 13:25:18 145.825
AIST 1 21 Apr 13:22:29 13:26:35 46° 267° (W) 13:30:39
BEESAT 2 21 Apr 13:24:43 13:28:50 66° 57° (ENE) 13:32:52 435.950
BEESAT 3 21 Apr 13:29:34 13:33:41 89° 271° (W) 13:37:43 437.485
Cosmos 2504 21 Apr 13:30:39 13:38:12 34° 86° (E) 13:45:59 435.465 / 435.565
VELOX 1 21 Apr 13:30:55 13:32:52 12° 295° (WNW) 13:34:35 145.980
TISAT 1 21 Apr 13:39:16 13:43:32 85° 283° (WNW) 13:47:47 437.305
BEESAT 21 Apr 13:39:21 13:41:34 14° 90° (E) 13:44:03 436.000
SWISSCUBE 21 Apr 13:40:39 13:43:20 15° 91° (E) 13:46:14 437.505
YUBILEINY 21 Apr 13:41:01 13:48:03 25° 294° (WNW) 13:54:45 435.215
SO-50 21 Apr 13:48:05 13:52:34 47° 307° (NW) 13:57:13 436.795
CUBEBUG 1 21 Apr 13:49:48 13:52:21 15° 293° (WNW) 13:54:44 437.445
SPROUT 21 Apr 13:51:36 13:55:47 48° 286° (WNW) 13:59:56 437.525
AIST 2 21 Apr 13:55:46 13:59:50 44° 54° (NE) 14:03:51 435.215
Oscar 19 21 Apr 14:22:49 14:27:43 45° 261° (W) 14:32:40 437.125/150
HORYU 2 21 Apr 14:34:11 14:34:39 10° 63° (ENE) 14:35:23 437.375
ITUPSAT 1 21 Apr 14:41:12 14:45:56 62° 101° (ESE) 14:50:38 437.325
ITAMSAT 1 21 Apr 14:46:34 14:51:45 87° 254° (WSW) 14:56:59 435.822/435.867
Gurwin Techsat 1B 21 Apr 14:48:34 14:53:52 82° 77° (ENE) 14:59:14 435.225
RS-15 21 Apr 14:51:15 15:01:17 47° 111° (ESE) 15:11:38 29.354- 29.394
KKS-1 21 Apr 14:51:24 14:53:31 13° 90° (E) 14:55:52 437.445
JAS-2 21 Apr 14:54:44 15:00:17 23° 62° (ENE) 15:06:02 435.910
ISS 21 Apr 14:55:51 14:58:45 29° 330° (NNW) 15:01:40 145.825
BEESAT 21 Apr 15:15:11 15:19:52 57° 286° (WNW) 15:24:31 436.000
SWISSCUBE 21 Apr 15:16:56 15:21:33 50° 287° (WNW) 15:26:07 437.505
AO-7 21 Apr 15:19:43 15:27:10 40° 63° (ENE) 15:34:45 29.400- 29.500
Cosmos 2504 21 Apr 15:22:49 15:31:24 52° 284° (WNW) 15:39:57 435.465 / 435.565
AIST 2 21 Apr 15:35:29 15:38:05 16° 250° (WSW) 15:40:31 435.215
STARS 21 Apr 15:55:44 15:59:59 44° 99° (E) 16:04:15 437.465
HORYU 2 21 Apr 16:06:15 16:10:44 77° 258° (WSW) 16:15:14 437.375
GONETS M04 21 Apr 16:06:39 16:12:32 21° 82° (E) 16:18:51
ITUPSAT 1 21 Apr 16:20:51 16:23:22 14° 296° (WNW) 16:25:39 437.325
KKS-1 21 Apr 16:26:09 16:30:32 51° 286° (WNW) 16:34:52 437.445
Gurwin Techsat 1B 21 Apr 16:33:13 16:34:37 11° 273° (W) 16:35:39 435.225
JAS-2 21 Apr 16:36:46 16:44:35 80° 258° (WSW) 16:52:25 435.910
RS-15 21 Apr 17:03:08 17:13:40 50° 313° (NW) 17:24:22 29.354- 29.394
CUTE-I 21 Apr 17:05:53 17:07:28 12° 61° (ENE) 17:09:22 437.470
AO-7 21 Apr 17:12:04 17:19:55 45° 261° (W) 17:27:43 29.400- 29.500
Cubesat XI-IV 21 Apr 17:13:02 17:15:35 14° 63° (ENE) 17:18:24 437.490
STARS 21 Apr 17:33:15 17:36:08 17° 293° (WNW) 17:38:51 437.465
VERMONT LUNAR 21 Apr 17:34:45 17:35:57 12° 145° (SE) 17:37:15 437.305
MOZHAYETS 4 21 Apr 17:56:06 18:00:44 87° 279° (W) 18:05:17
GONETS M04 21 Apr 17:59:49 18:08:34 74° 280° (W) 18:17:24
Cosmos 2499 21 Apr 18:07:01 18:13:13 23° 83° (E) 18:19:46 435.465 / 435.565
CUSAT 1 21 Apr 18:19:48 18:22:54 79° 98° (E) 18:26:57 437.405
JAS-2 21 Apr 18:26:45 18:30:49 14° 276° (W) 18:34:18 435.910
DANDE 21 Apr 18:29:45 18:32:38 69° 98° (E) 18:36:19 436.750
AUBIESAT-1 21 Apr 18:33:17 18:35:40 15° 94° (E) 18:38:07 437.475
PCSat 21 Apr 18:33:44 18:38:53 43° 56° (NE) 18:44:02 145.827
CUTE-I 21 Apr 18:41:33 18:46:53 89° 250° (WSW) 18:52:15 437.470
Cubesat XI-IV 21 Apr 18:49:47 18:55:08 75° 258° (WSW) 19:00:29 437.490
PHONESAT 2.4 21 Apr 18:54:00 18:56:29 18° 147° (SSE) 18:59:03 2401.200-2431.200
VERMONT LUNAR 21 Apr 19:09:43 19:13:02 53° 158° (SSE) 19:16:21 437.305
STRAND 1 21 Apr 19:15:09 19:19:04 23° 93° (E) 19:23:06 437.568
CUBESAT XI-V 21 Apr 19:19:49 19:24:20 54° 100° (E) 19:28:51 437.345
M-CUBED/EXP-1 PRIME 21 Apr 19:19:53 19:24:13 65° 105° (ESE) 19:28:09 437.505
RS-15 21 Apr 19:22:19 19:29:48 19° 344° (NNW) 19:37:14 29.354- 29.394
ISS 21 Apr 19:48:02 19:50:50 26° 29° (NNE) 19:53:39 145.825
HO-68 21 Apr 19:55:26 20:01:27 31° 63° (ENE) 20:07:37 435.675
DOVE 4 21 Apr 19:56:10 19:57:04 11° 64° (ENE) 19:58:13 437.250
Cosmos 2499 21 Apr 19:56:47 20:05:40 74° 279° (W) 20:14:27 435.465 / 435.565
GONETS M04 21 Apr 20:03:01 20:07:22 14° 302° (WNW) 20:11:05
AUBIESAT-1 21 Apr 20:06:44 20:10:47 40° 293° (WNW) 20:14:30 437.475
PRISM 21 Apr 20:12:01 20:16:05 60° 286° (WNW) 20:20:05 437.425
COMPASS 1 21 Apr 20:14:58 20:17:04 14° 67° (ENE) 20:19:22 437.405
PCSat 21 Apr 20:17:42 20:22:05 24° 252° (WSW) 20:26:19 145.827
